Location: El Álamo
(40.2307°N, 3.9945°W)
Time: 04:04:43
(UTC+00:00)

Cosmos 1934 Rocket - Pass Details

Date: 19 May 2025
Orbit: 938 x 997 km, 83.0° (Epoch: 23 June)

Event Time Altitude Azimuth Distance (km) Brightness Sun altitude
Rises 23:10:56 0° 353° (N) 3,674 8.2 -28.1°
Reaches altitude 10° 23:13:26 10° 353° (N) 2,731 7.3 -28.2°
Maximum altitude 23:19:43 87° 84° (E) 992 3.9 -28.5°
Enters shadow 23:20:04 81° 156° (SSE) 1,002 3.8 -28.6°
